Location: Moulis
(42.9609°N, 1.0909°E)
Time: 18:47:59
(UTC+00:00)

NOSS 2-3 (D) - Visible Passes

Search period start: 07 March 2026 00:00
Search period end: 17 March 2026 00:00
Orbit: 497 x 1701 km, 63.3° (Epoch: 24 April)

Date Brightness Start Highest point End Pass type
(mag) Time Alt. Az. Time Alt. Az. Time Alt. Az.
7 Mar 6.6 03:19:38 10° N 03:22:51 17° NE 03:26:35 10° ENE visible
7 Mar 4.6 05:08:06 10° NNW 05:13:22 76° NE 05:20:31 10° SE visible
8 Mar 6.9 02:26:54 10° NNE 02:27:23 10° NNE 02:27:51 10° NNE visible
8 Mar 5.5 04:13:35 10° NNW 04:18:27 42° NE 04:24:50 10° ESE visible
9 Mar 6.2 03:19:47 12° N 03:23:23 24° NE 03:28:25 10° E visible
9 Mar 4.4 05:08:15 10° NW 05:13:38 72° SW 05:20:53 10° SSE visible
10 Mar 6.7 02:26:44 13° NNE 02:28:03 14° NE 02:31:08 10° ENE visible
10 Mar 4.7 04:13:32 10° NNW 04:18:44 64° NE 04:25:42 10° SE visible
10 Mar 5.1 19:53:42 10° SSW 19:54:54 19° SSW 19:54:54 19° SSW visible
11 Mar 5.7 03:20:28 18° N 03:23:44 35° NE 03:29:46 10° ESE visible
11 Mar 4.8 05:08:31 10° NW 05:13:49 46° WSW 05:20:48 10° S visible
11 Mar 4.4 18:59:52 10° SSE 19:02:46 21° ESE 19:03:05 21° ESE visible
11 Mar 6.0 20:49:09 10° WSW 20:49:52 14° W 20:49:52 14° W visible
12 Mar 6.3 02:27:38 20° NNE 02:28:33 21° NE 02:33:05 10° E visible
12 Mar 4.3 04:14:21 15° NW 04:18:54 85° SW 04:26:10 10° SSE visible
12 Mar 3.3 19:53:43 10° SW 19:57:26 70° NW 19:58:02 56° N visible
13 Mar 7.0 01:34:59 11° NE 01:34:59 11° NE 01:35:27 10° ENE visible
13 Mar 4.9 03:21:43 33° N 03:23:57 53° NE 03:30:44 10° SE visible
13 Mar 5.3 05:08:58 10° WNW 05:13:55 30° WSW 05:20:09 10° S visible
13 Mar 3.5 18:59:06 10° SSW 19:02:41 41° ESE 19:06:09 10° NE visible
13 Mar 5.8 20:50:09 10° W 20:52:44 18° NW 20:52:56 18° NNW visible
14 Mar 5.9 02:29:17 30° NE 02:29:17 30° NE 02:34:32 10° ESE visible
14 Mar 4.5 04:16:02 28° WNW 04:19:02 56° WSW 04:26:11 10° SSE visible
14 Mar 4.6 19:54:06 10° WSW 19:57:33 36° NW 20:00:54 11° NNE visible
15 Mar 7.0 01:37:05 11° ENE 01:37:05 11° ENE 01:37:35 10° E visible
15 Mar 4.3 03:23:52 80° NNE 03:24:04 81° NE 03:31:16 10° SE visible
15 Mar 5.8 05:10:38 13° WNW 05:13:56 19° WSW 05:18:48 10° SSW visible
15 Mar 3.0 18:58:52 10° SW 19:02:37 87° SE 19:06:22 10° NE visible
15 Mar 6.3 20:51:47 10° NW 20:53:09 12° NNW 20:54:34 10° N visible
16 Mar 6.0 02:31:58 28° ESE 02:31:58 28° ESE 02:35:34 10° ESE visible
16 Mar 4.9 04:18:45 36° WSW 04:19:04 36° WSW 04:25:41 10° S visible
16 Mar 5.6 19:54:51 10° W 19:57:44 21° NW 20:00:45 10° NNE visible
